Starlink 3582

operational
NORAD ID: 51873 Int'l Des: 2022-022 Owner: SPXS Country: US Constellation: starlink
LEOCIRCULAR

Starlink 3582について

説明を読み込み中...

リアルタイム位置

3D地球を読み込み中...

次回通過

高度履歴

Altitude vs Time

uPlot chart will show altitude changes over time

軌道要素

1 51873U 22022X 26036.71786472 .00058251 00000-0 30732-2 0 9999
2 51873 53.2137 150.2974 0002557 133.2408 226.8801 15.15015202218320
Epoch: Feb 5, 2026 • Age: 13 hours

現在のステータス

高度 520.1 km
速度 7.61 km/s
衛星直下点 25.99°N, 72.01°E
打ち上げ日 Mar 3, 2022
運用期間 3.9 years
タイプ internet

技術仕様

分類 Payload
質量 297.00 kg
乾燥質量 275.00 kg
総質量 297.00 kg
長さ 0.20 m
直径 2.80 m
スパン 9.00 m
形状 Box + pan
製造者 SPXS
バスタイプ Starlink
フェーズステータス In Orbit
所有者/国 SPXS/US

大規模コンステレーション

Loading constellations...